Погода Баабдана 2 недели

Бейрут, Ливан

20 июля-01 августа
  • 20июля
    Сегодня
    +27°
    +32°
    Ясно и безоблачно
    ВремяПогодаТемператураВлажностьДавлениеВетер, м/сВероятность осадков
    00:00Ясно и безоблачно+29°C79 %747 мм3.1 м/с1 %
    03:00Ясно и безоблачно+29°C78 %747 мм3.5 м/с1 %
    06:00Ясно и безоблачно+28°C70 %746 мм2.5 м/с1 %
    09:00Ясно и безоблачно+30°C68 %747 мм6.0 м/с1 %
    12:00Ясно и безоблачно+31°C70 %748 мм6.3 м/с1 %
    15:00Ясно и безоблачно+32°C69 %747 мм6.3 м/с1 %
    18:00Ясно и безоблачно+31°C70 %747 мм4.8 м/с1 %
    21:00Ясно и безоблачно+30°C77 %748 мм3.9 м/с1 %
  • 21июля
    Воскресенье
    +27°
    +32°
    Ясно и безоблачно
    ВремяПогодаТемператураВлажностьДавлениеВетер, м/сВероятность осадков
    00:00Ясно и безоблачно+29°C76 %748 мм2.6 м/с1 %
    03:00Ясно и безоблачно+28°C62 %748 мм2.6 м/с1 %
    06:00Ясно и безоблачно+28°C55 %748 мм2.0 м/с1 %
    09:00Ясно и безоблачно+30°C67 %749 мм5.5 м/с1 %
    12:00Ясно и безоблачно+32°C70 %749 мм6.3 м/с1 %
    15:00Ясно и безоблачно+32°C69 %749 мм6.0 м/с1 %
    18:00Ясно и безоблачно+31°C71 %749 мм4.6 м/с1 %
    21:00Ясно и безоблачно+30°C77 %749 мм3.5 м/с1 %
  • 22июля
    Понедельник
    +27°
    +32°
    Ясно и безоблачно
    ВремяПогодаТемператураВлажностьДавлениеВетер, м/сВероятность осадков
    00:00Ясно и безоблачно+29°C73 %749 мм2.6 м/с1 %
    03:00Ясно и безоблачно+28°C64 %749 мм3.0 м/с1 %
    06:00Ясно и безоблачно+28°C60 %749 мм2.6 м/с1 %
    09:00Ясно и безоблачно+30°C67 %749 мм5.9 м/с1 %
    12:00Ясно и безоблачно+32°C71 %750 мм6.4 м/с1 %
    15:00Ясно и безоблачно+32°C66 %750 мм6.2 м/с1 %
    18:00Ясно и безоблачно+31°C72 %749 мм4.9 м/с1 %
    21:00Ясно и безоблачно+30°C78 %750 мм3.9 м/с1 %
  • 23июля
    Вторник
    +27°
    +32°
    Ясно и безоблачно
    ВремяПогодаТемператураВлажностьДавлениеВетер, м/сВероятность осадков
    00:00Ясно и безоблачно+29°C73 %750 мм3.0 м/с1 %
    03:00Ясно и безоблачно+28°C68 %749 мм3.1 м/с1 %
    06:00Ясно и безоблачно+28°C59 %749 мм2.6 м/с1 %
    09:00Ясно и безоблачно+30°C64 %750 мм5.7 м/с1 %
    12:00Ясно и безоблачно+31°C69 %750 мм6.1 м/с1 %
    15:00Ясно и безоблачно+32°C67 %750 мм5.9 м/с1 %
    18:00Ясно и безоблачно+31°C68 %749 мм4.5 м/с1 %
    21:00Ясно и безоблачно+29°C76 %749 мм3.9 м/с1 %
Мы используем cookies
Соглашаюсь